Location: Poughquag
(41.6090°N, 73.6820°W)
Time: 12:16:49
(UTC-04:00)

Vanguard 2 Rocket - Pass Details

Date: 04 June 2020
Orbit: 556 x 3324 km, 32.9° (Epoch: 06 July)

Event Time Altitude Azimuth Distance (km) Brightness Sun altitude
Rises 20:32:13 0° 271° (W) 5,105 11.9 -1.9°
Reaches altitude 10° 20:35:49 10° 260° (W) 4,492 11.2 -2.5°
Maximum altitude 20:46:14 28° 209° (SSW) 4,107 10.2 -4.1°
Drops below altitude 10° 21:00:26 10° 160° (SSE) 6,147 10.6 -6.2°
Enters shadow 21:05:30 - 152° (SSE) 7,077 10.8 -7.0°
Sets 21:06:40 0° 150° (SSE) 7,291 - -7.2°
